Time,TemperatureF,DewpointF,PressureIn,WindDirection,WindDirectionDegrees,WindSpeedMPH,WindSpeedGustMPH,Humidity,HourlyPrecipIn,Conditions,Clouds,dailyrainin,SoftwareType,DateUTC
2013-07-13 00:43:00,69.0,64.0,30.00,WSW,248,0.0,0.0,85,0.00,,,0.00,,2013-07-13 04:43:00,
2013-07-13 00:52:00,68.0,64.0,30.00,WSW,248,0.0,0.0,87,0.00,,,0.00,,2013-07-13 04:52:00,
2013-07-13 01:01:00,68.0,64.0,30.00,WSW,248,0.0,0.0,87,0.00,,,0.00,,2013-07-13 05:01:00,
2013-07-13 01:11:00,68.0,64.0,30.00,WSW,248,0.0,0.0,87,0.00,,,0.00,,2013-07-13 05:11:00,
2013-07-13 01:32:00,67.0,64.0,30.01,WSW,248,0.0,0.0,89,0.00,,,0.00,,2013-07-13 05:32:00,
2013-07-13 01:42:00,67.0,64.0,30.01,WSW,248,0.0,0.0,91,0.00,,,0.00,,2013-07-13 05:42:00,
2013-07-13 01:52:00,66.0,63.0,30.01,WSW,248,0.0,0.0,91,0.00,,,0.00,,2013-07-13 05:52:00,
2013-07-13 02:52:00,66.0,64.0,30.00,WSW,248,0.0,0.0,93,0.00,,,0.00,,2013-07-13 06:52:00,
2013-07-13 03:02:00,66.0,64.0,30.00,WSW,248,0.0,0.0,92,0.00,,,0.00,,2013-07-13 07:02:00,
2013-07-13 03:22:00,66.0,64.0,29.99,WSW,248,0.0,0.0,92,0.00,,,0.00,,2013-07-13 07:22:00,
2013-07-13 03:33:00,66.0,64.0,29.99,WSW,248,0.0,0.0,92,0.00,,,0.00,,2013-07-13 07:33:00,
2013-07-13 03:44:00,66.0,64.0,29.99,WSW,248,0.0,0.0,93,0.00,,,0.00,,2013-07-13 07:44:00,
2013-07-13 03:53:00,66.0,64.0,29.99,WSW,248,0.0,0.0,94,0.00,,,0.00,,2013-07-13 07:53:00,
2013-07-13 04:02:00,66.0,64.0,29.99,WSW,248,0.0,0.0,94,0.00,,,0.00,,2013-07-13 08:02:00,
2013-07-13 04:11:00,66.0,64.0,29.99,WSW,248,0.0,0.0,94,0.00,,,0.00,,2013-07-13 08:11:00,
2013-07-13 04:22:00,66.0,64.0,29.99,WSW,248,0.0,0.0,94,0.00,,,0.00,,2013-07-13 08:22:00,
2013-07-13 04:33:00,66.0,64.0,29.99,WSW,248,0.0,0.0,94,0.00,,,0.00,,2013-07-13 08:33:00,
2013-07-13 04:43:00,66.0,64.0,29.99,WSW,248,0.0,0.0,93,0.00,,,0.00,,2013-07-13 08:43:00,
2013-07-13 04:52:00,66.0,64.0,29.98,WSW,248,0.0,0.0,94,0.00,,,0.00,,2013-07-13 08:52:00,
2013-07-13 05:02:00,66.0,64.0,29.98,WSW,248,0.0,0.0,93,0.00,,,0.00,,2013-07-13 09:02:00,
2013-07-13 05:11:00,66.0,64.0,29.98,WSW,248,0.0,0.0,93,0.00,,,0.00,,2013-07-13 09:11:00,
2013-07-13 05:22:00,65.0,63.0,29.98,WSW,248,0.0,0.0,93,0.00,,,0.00,,2013-07-13 09:22:00,
2013-07-13 05:33:00,64.0,63.0,29.98,WSW,248,0.0,0.0,95,0.00,,,0.00,,2013-07-13 09:33:00,
2013-07-13 05:43:00,64.0,63.0,29.98,WSW,248,0.0,0.0,95,0.00,,,0.00,,2013-07-13 09:43:00,
2013-07-13 05:53:00,64.0,63.0,29.98,WSW,248,0.0,0.0,95,0.00,,,0.00,,2013-07-13 09:53:00,
2013-07-13 06:01:00,65.0,64.0,29.99,WSW,248,0.0,0.0,96,0.00,,,0.00,,2013-07-13 10:01:00,
2013-07-13 06:11:00,65.0,64.0,29.99,WSW,248,0.0,0.0,96,0.00,,,0.00,,2013-07-13 10:11:00,
2013-07-13 06:32:00,66.0,65.0,30.01,WSW,248,0.0,0.0,95,0.00,,,0.00,,2013-07-13 10:32:00,
2013-07-13 06:52:00,66.0,65.0,30.02,WSW,248,0.0,0.0,95,0.00,,,0.00,,2013-07-13 10:52:00,
2013-07-13 07:02:00,66.0,65.0,30.02,WSW,248,0.0,0.0,95,0.00,,,0.00,,2013-07-13 11:02:00,
2013-07-13 07:32:00,66.0,64.0,30.02,WSW,248,0.0,0.0,94,0.00,,,0.00,,2013-07-13 11:32:00,
2013-07-13 07:52:00,66.0,64.0,30.03,WSW,248,0.0,0.0,94,0.00,,,0.00,,2013-07-13 11:52:00,
2013-07-13 08:32:00,67.0,65.0,30.04,SW,229,0.0,0.0,94,0.00,,,0.00,,2013-07-13 12:32:00,
2013-07-13 08:43:00,67.0,65.0,30.04,SW,229,0.0,0.0,94,0.00,,,0.00,,2013-07-13 12:43:00,
2013-07-13 08:52:00,67.0,65.0,30.04,SW,229,0.0,0.0,94,0.00,,,0.00,,2013-07-13 12:52:00,
2013-07-13 09:01:00,68.0,66.0,30.04,SW,229,0.0,0.0,94,0.00,,,0.00,,2013-07-13 13:01:00,
2013-07-13 09:43:00,71.0,68.0,30.05,SSW,196,0.0,0.0,89,0.00,,,0.00,,2013-07-13 13:43:00,
2013-07-13 10:32:00,74.0,68.0,30.04,WSW,248,0.0,1.0,81,0.00,,,0.00,,2013-07-13 14:32:00,
2013-07-13 10:53:00,76.0,67.0,30.05,WSW,256,0.0,2.0,75,0.00,,,0.00,,2013-07-13 14:53:00,
2013-07-13 11:02:00,76.0,68.0,30.06,WSW,256,0.0,0.0,77,0.00,,,0.00,,2013-07-13 15:02:00,
2013-07-13 11:22:00,77.0,68.0,30.06,WNW,287,1.0,3.0,74,0.00,,,0.00,,2013-07-13 15:22:00,
2013-07-13 11:33:00,77.0,69.0,30.06,WSW,258,0.0,2.0,76,0.00,,,0.00,,2013-07-13 15:33:00,
2013-07-13 11:43:00,77.0,69.0,30.06,WSW,241,0.0,2.0,76,0.00,,,0.00,,2013-07-13 15:43:00,
2013-07-13 11:53:00,77.0,68.0,30.06,West,266,0.0,2.0,74,0.00,,,0.00,,2013-07-13 15:53:00,
2013-07-13 12:02:00,77.0,69.0,30.06,West,266,0.0,1.0,76,0.00,,,0.00,,2013-07-13 16:02:00,
2013-07-13 12:11:00,77.0,68.0,30.06,North,360,0.0,2.0,74,0.00,,,0.00,,2013-07-13 16:11:00,
2013-07-13 12:22:00,78.0,69.0,30.06,WNW,288,0.0,5.0,73,0.00,,,0.00,,2013-07-13 16:22:00,
2013-07-13 12:33:00,78.0,69.0,30.06,WNW,288,0.0,1.0,75,0.00,,,0.00,,2013-07-13 16:33:00,
2013-07-13 12:43:00,77.0,70.0,30.06,WNW,287,0.0,0.0,80,0.00,,,0.00,,2013-07-13 16:43:00,
2013-07-13 12:53:00,79.0,69.0,30.06,West,281,0.0,1.0,72,0.00,,,0.00,,2013-07-13 16:53:00,
2013-07-13 13:01:00,78.0,70.0,30.07,NW,308,0.0,0.0,76,0.00,,,0.00,,2013-07-13 17:01:00,
2013-07-13 13:12:00,78.0,71.0,30.07,NNW,332,0.0,1.0,78,0.00,,,0.00,,2013-07-13 17:12:00,
2013-07-13 13:22:00,78.0,70.0,30.07,NNW,333,0.0,0.0,77,0.00,,,0.00,,2013-07-13 17:22:00,
2013-07-13 13:33:00,81.0,71.0,30.06,WSW,240,1.0,2.0,72,0.00,,,0.00,,2013-07-13 17:33:00,
2013-07-13 13:43:00,82.0,71.0,30.06,West,275,0.0,2.0,69,0.00,,,0.00,,2013-07-13 17:43:00,
2013-07-13 13:52:00,83.0,70.0,30.06,West,260,1.0,4.0,65,0.00,,,0.00,,2013-07-13 17:52:00,
2013-07-13 14:01:00,82.0,69.0,30.06,SSW,210,0.0,2.0,66,0.00,,,0.00,,2013-07-13 18:01:00,
2013-07-13 14:11:00,80.0,72.0,30.06,NE,44,0.0,1.0,77,0.00,,,0.00,,2013-07-13 18:11:00,
2013-07-13 14:22:00,81.0,73.0,30.06,WSW,243,0.0,3.0,76,0.00,,,0.00,,2013-07-13 18:22:00,
2013-07-13 14:32:00,81.0,72.0,30.05,SW,214,0.0,2.0,73,0.00,,,0.00,,2013-07-13 18:32:00,
2013-07-13 14:44:00,81.0,72.0,30.05,WNW,294,0.0,4.0,73,0.00,,,0.00,,2013-07-13 18:44:00,
2013-07-13 14:53:00,81.0,72.0,30.06,WSW,237,0.0,5.0,73,0.00,,,0.00,,2013-07-13 18:53:00,
2013-07-13 15:02:00,79.0,72.0,30.06,West,266,0.0,1.0,79,0.00,,,0.00,,2013-07-13 19:02:00,
2013-07-13 15:11:00,79.0,72.0,30.06,West,275,0.0,2.0,80,0.00,,,0.00,,2013-07-13 19:11:00,
2013-07-13 15:22:00,78.0,71.0,30.05,ENE,76,0.0,1.0,79,0.00,,,0.00,,2013-07-13 19:22:00,
2013-07-13 15:32:00,80.0,72.0,30.05,West,278,0.0,2.0,76,0.00,,,0.00,,2013-07-13 19:32:00,
2013-07-13 15:52:00,82.0,72.0,30.05,NNW,336,1.0,4.0,72,0.00,,,0.00,,2013-07-13 19:52:00,
2013-07-13 16:01:00,80.0,72.0,30.05,NNW,346,0.0,2.0,76,0.00,,,0.00,,2013-07-13 20:01:00,
2013-07-13 16:11:00,80.0,71.0,30.05,West,262,0.0,1.0,75,0.00,,,0.00,,2013-07-13 20:11:00,
2013-07-13 16:22:00,80.0,72.0,30.05,West,263,0.0,2.0,78,0.00,,,0.00,,2013-07-13 20:22:00,
2013-07-13 16:33:00,81.0,71.0,30.04,West,267,1.0,4.0,72,0.00,,,0.00,,2013-07-13 20:33:00,
2013-07-13 16:43:00,80.0,71.0,30.04,West,267,0.0,2.0,74,0.00,,,0.00,,2013-07-13 20:43:00,
2013-07-13 16:52:00,78.0,71.0,30.05,West,268,0.0,2.0,80,0.00,,,0.00,,2013-07-13 20:52:00,
2013-07-13 17:02:00,76.0,70.0,30.05,West,268,0.0,1.0,83,0.00,,,0.00,,2013-07-13 21:02:00,
2013-07-13 17:12:00,76.0,70.0,30.05,West,268,0.0,1.0,83,0.00,,,0.00,,2013-07-13 21:12:00,
2013-07-13 17:22:00,77.0,72.0,30.05,West,268,0.0,0.0,85,0.00,,,0.00,,2013-07-13 21:22:00,
2013-07-13 17:32:00,79.0,73.0,30.04,West,268,0.0,1.0,82,0.00,,,0.00,,2013-07-13 21:32:00,
2013-07-13 17:43:00,80.0,72.0,30.04,West,268,0.0,1.0,76,0.00,,,0.00,,2013-07-13 21:43:00,
2013-07-13 17:53:00,80.0,71.0,30.04,West,268,0.0,1.0,73,0.00,,,0.00,,2013-07-13 21:53:00,
2013-07-13 18:01:00,79.0,72.0,30.03,West,268,0.0,1.0,78,0.00,,,0.00,,2013-07-13 22:01:00,
2013-07-13 18:12:00,79.0,72.0,30.03,West,268,0.0,0.0,80,0.00,,,0.00,,2013-07-13 22:12:00,
2013-07-13 18:22:00,79.0,71.0,30.04,West,263,0.0,0.0,76,0.00,,,0.00,,2013-07-13 22:22:00,
2013-07-13 18:32:00,79.0,72.0,30.04,West,263,0.0,0.0,79,0.00,,,0.00,,2013-07-13 22:32:00,
2013-07-13 18:43:00,79.0,72.0,30.04,West,263,0.0,0.0,79,0.00,,,0.00,,2013-07-13 22:43:00,
2013-07-13 18:53:00,79.0,72.0,30.04,West,263,0.0,0.0,79,0.00,,,0.00,,2013-07-13 22:53:00,
2013-07-13 19:02:00,79.0,72.0,30.05,West,263,0.0,0.0,80,0.00,,,0.00,,2013-07-13 23:02:00,
2013-07-13 19:11:00,78.0,71.0,30.05,SW,222,0.0,0.0,80,0.00,,,0.00,,2013-07-13 23:11:00,
2013-07-13 19:22:00,78.0,72.0,30.05,SW,222,0.0,0.0,81,0.00,,,0.00,,2013-07-13 23:22:00,
2013-07-13 19:32:00,78.0,72.0,30.05,SW,222,0.0,0.0,83,0.00,,,0.00,,2013-07-13 23:32:00,
2013-07-13 19:42:00,77.0,72.0,30.05,SW,222,0.0,0.0,84,0.00,,,0.00,,2013-07-13 23:42:00,
2013-07-13 19:53:00,77.0,72.0,30.05,SW,222,0.0,0.0,85,0.00,,,0.00,,2013-07-13 23:53:00,
2013-07-13 20:01:00,77.0,72.0,30.05,SW,222,0.0,0.0,84,0.00,,,0.00,,2013-07-14 00:01:00,
2013-07-13 20:12:00,78.0,72.0,30.05,WNW,288,0.0,0.0,83,0.00,,,0.00,,2013-07-14 00:12:00,
2013-07-13 20:21:00,77.0,72.0,30.05,WNW,288,0.0,0.0,84,0.00,,,0.00,,2013-07-14 00:21:00,
2013-07-13 20:33:00,77.0,72.0,30.06,WNW,288,0.0,0.0,85,0.00,,,0.00,,2013-07-14 00:33:00,
2013-07-13 20:42:00,77.0,72.0,30.06,WNW,288,0.0,0.0,86,0.00,,,0.00,,2013-07-14 00:42:00,
2013-07-13 20:53:00,77.0,73.0,30.06,WNW,288,0.0,0.0,87,0.00,,,0.00,,2013-07-14 00:53:00,
2013-07-13 21:02:00,76.0,72.0,30.07,WNW,288,0.0,0.0,88,0.00,,,0.00,,2013-07-14 01:02:00,
2013-07-13 21:11:00,76.0,73.0,30.07,WNW,288,0.0,0.0,89,0.00,,,0.00,,2013-07-14 01:11:00,
2013-07-13 21:22:00,75.0,72.0,30.07,WNW,288,0.0,0.0,89,0.00,,,0.00,,2013-07-14 01:22:00,
2013-07-13 21:32:00,75.0,72.0,30.07,WNW,288,0.0,0.0,89,0.00,,,0.00,,2013-07-14 01:32:00,
2013-07-13 21:43:00,75.0,72.0,30.07,WNW,288,0.0,0.0,89,0.00,,,0.00,,2013-07-14 01:43:00,
2013-07-13 21:52:00,75.0,72.0,30.07,WNW,288,0.0,0.0,89,0.00,,,0.00,,2013-07-14 01:52:00,
2013-07-13 22:02:00,74.0,71.0,30.08,WNW,288,0.0,0.0,89,0.00,,,0.00,,2013-07-14 02:02:00,
2013-07-13 22:11:00,74.0,71.0,30.08,WNW,288,0.0,0.0,89,0.00,,,0.00,,2013-07-14 02:11:00,
2013-07-13 22:22:00,74.0,71.0,30.09,WNW,288,0.0,0.0,89,0.00,,,0.00,,2013-07-14 02:22:00,
2013-07-13 22:32:00,74.0,71.0,30.09,WNW,288,0.0,0.0,89,0.00,,,0.00,,2013-07-14 02:32:00,
2013-07-13 22:43:00,74.0,71.0,30.09,WNW,288,0.0,0.0,89,0.00,,,0.00,,2013-07-14 02:43:00,
2013-07-13 22:53:00,74.0,71.0,30.09,WNW,288,0.0,0.0,89,0.00,,,0.00,,2013-07-14 02:53:00,
2013-07-13 23:01:00,74.0,71.0,30.10,WNW,288,0.0,0.0,90,0.00,,,0.00,,2013-07-14 03:01:00,
2013-07-13 23:11:00,74.0,71.0,30.10,WNW,288,0.0,0.0,90,0.00,,,0.00,,2013-07-14 03:11:00,
2013-07-13 23:22:00,74.0,71.0,30.10,WNW,288,0.0,0.0,90,0.00,,,0.00,,2013-07-14 03:22:00,
2013-07-13 23:32:00,73.0,70.0,30.09,WNW,288,0.0,0.0,91,0.00,,,0.00,,2013-07-14 03:32:00,
2013-07-13 23:43:00,73.0,70.0,30.09,WNW,288,0.0,0.0,91,0.00,,,0.00,,2013-07-14 03:43:00,
2013-07-13 23:53:00,73.0,71.0,30.10,WNW,288,0.0,0.0,92,0.00,,,0.00,,2013-07-14 03:53:00,